Location: Ostrava
(49.8330°N, 18.2830°E)
Time: 23:24:39
(UTC+02:00)

Explorer 7 - Visible Passes

Search period start: 30 June 2015 00:00
Search period end: 10 July 2015 00:00
Orbit: 488 x 693 km, 50.3° (Epoch: 30 June)

Date Brightness Start Highest point End Pass type
(mag) Time Alt. Az. Time Alt. Az. Time Alt. Az.
06 Jul 9.5 03:13:21 10° SSE 03:15:21 13° SE 03:17:30 10° ESE visible
07 Jul 9.0 03:19:22 10° S 03:22:48 19° SE 03:26:15 10° E visible
08 Jul 8.5 03:26:31 12° SSW 03:30:18 28° SE 03:34:23 10° E visible
09 Jul 9.4 01:57:13 10° SE 01:57:52 11° SE 01:59:09 10° ESE visible
09 Jul 8.0 03:33:41 12° SW 03:37:50 39° SSE 03:42:18 10° E visible
